GFSNW_500_spd_057.txt.gz
Wind_Speed
16 19 28 30 33 34 37 43 50 58 64 66 55 26 6 11 10 6 4 2 4 8 9 9 13 13 17 17 20 19 21 20 21 20 21 23 25 24 24 25 24 26 28 28
13 17 25 28 32 33 36 42 48 55 60 65 56 29 7 13 13 11 7 6 5 4 6 7 16 18 18 17 25 16 17 18 17 19 22 24 25 19 18 22 26 31 30 27
12 17 22 29 33 32 34 41 46 54 59 63 58 32 12 13 15 14 12 8 8 8 6 6 14 19 20 18 18 20 20 20 19 20 19 20 22 23 24 26 28 25 23 18
12 17 20 28 32 33 35 39 44 52 60 61 58 38 18 11 15 16 15 13 11 10 10 10 11 14 15 16 19 21 21 22 23 23 24 26 27 25 25 27 24 23 10 20
11 16 22 26 32 37 35 36 41 49 55 58 54 41 22 6 17 18 17 17 16 14 12 12 12 13 14 14 17 20 21 22 23 23 24 25 26 28 27 26 24 26 26 21
12 15 20 26 31 32 32 34 36 43 51 53 51 38 25 12 13 20 18 18 17 17 16 14 14 14 14 15 15 17 17 19 21 21 21 21 17 16 20 23 22 25 25 21
12 18 22 25 30 31 29 32 31 39 46 49 46 35 23 20 4 20 21 20 18 18 16 16 15 15 15 15 15 16 17 18 18 16 20 19 16 17 21 21 22 26 26 26
14 20 26 26 27 30 25 29 29 34 40 42 42 34 17 14 13 14 22 22 22 18 17 17 17 16 16 16 17 17 17 17 17 17 15 15 14 15 17 19 22 24 24 24
18 21 26 26 26 25 22 26 25 30 36 36 37 33 18 9 8 7 21 23 23 21 19 17 17 17 15 14 14 16 17 17 17 16 14 13 16 16 18 20 22 22 23 24
21 20 24 25 27 18 20 21 22 27 31 32 35 33 24 13 9 9 8 23 25 24 22 19 18 18 16 15 14 14 13 13 14 15 13 17 18 17 17 19 20 21 21 21
26 23 23 24 22 15 17 18 20 24 30 28 30 32 28 19 12 10 10 13 26 26 25 24 18 17 16 16 17 17 17 17 17 16 14 17 17 18 18 17 18 18 20 19
25 23 23 19 19 14 14 15 17 22 26 26 25 28 29 25 18 18 5 9 15 28 28 26 25 20 19 19 19 20 21 22 22 21 20 20 21 21 22 21 19 19 19 20
23 27 26 17 15 13 12 12 16 19 21 25 21 26 28 24 16 14 14 8 9 21 28 29 27 26 26 24 22 22 24 25 24 23 22 23 25 25 25 25 23 23 24 22
26 27 26 14 17 11 8 11 14 15 18 21 18 20 24 25 20 16 12 10 7 9 22 25 30 31 29 28 28 26 30 28 27 24 24 25 26 28 29 28 27 26 26 24
27 29 22 14 10 10 8 10 11 12 15 17 16 19 21 26 25 17 13 9 8 10 14 22 24 24 27 35 36 32 29 31 30 25 26 24 23 26 28 27 28 30 29 29
27 23 17 12 11 8 7 7 8 10 11 14 15 16 21 26 26 20 18 15 10 9 10 12 20 23 24 24 27 30 28 28 31 25 18 18 21 23 27 29 32 32 33 32
24 17 17 12 11 8 6 6 5 7 9 12 14 16 19 23 26 22 16 13 12 11 9 7 10 14 17 16 16 17 17 17 20 21 21 21 24 23 27 29 32 35 38 39
21 17 16 14 12 7 5 4 5 6 9 11 12 16 20 22 25 26 17 14 13 12 11 10 10 12 10 9 13 16 19 22 24 26 26 24 24 27 30 34 38 40 42 46
18 20 18 17 11 7 3 3 3 7 10 11 13 15 18 21 23 26 23 13 14 14 13 13 13 16 15 15 17 19 21 23 24 26 29 31 31 32 33 36 35 43 52 54
23 21 22 16 11 8 5 2 3 7 11 13 14 15 18 21 21 23 28 27 12 13 15 18 19 18 18 20 22 24 26 26 27 28 28 30 31 33 34 26 33 55 49 51
27 24 24 18 12 10 7 6 4 7 10 11 12 11 13 15 17 18 19 21 21 16 13 18 21 19 20 22 27 29 32 32 32 33 33 30 29 29 29 28 29 38 15 13
30 29 24 19 16 15 13 9 6 6 7 10 11 11 12 15 16 15 14 15 16 14 16 17 17 17 19 21 24 29 32 35 34 32 32 30 28 26 28 26 26 24 2 10
35 32 25 23 21 21 18 14 12 10 11 14 16 16 16 17 18 18 18 17 18 17 18 19 19 19 23 29 30 31 34 34 38 40 39 33 29 26 27 26 19 19 17 18
38 31 26 27 26 24 21 19 17 16 18 21 22 22 23 23 24 24 24 24 25 25 24 24 24 25 30 32 35 37 40 40 38 39 41 42 37 32 28 27 23 17 18 17
38 30 30 30 26 28 26 22 21 22 24 25 27 26 27 29 32 32 33 32 32 33 32 31 32 33 37 41 43 45 47 50 51 46 46 42 42 38 31 28 28 25 21 20
35 31 31 32 28 30 31 29 28 27 28 31 34 35 34 35 38 39 40 40 39 40 37 38 38 41 45 48 51 53 54 53 51 53 44 45 40 39 33 28 26 28 22 23
35 33 34 33 33 33 33 32 32 32 34 38 40 41 45 46 46 46 46 43 42 43 44 44 47 52 55 58 60 62 57 50 46 47 42 45 43 38 36 30 26 30 28 28

GFSNW_500_spd_060.txt.gz
Wind_Speed
12 8 8 10 16 21 26 30 34 40 48 54 59 53 34 4 7 5 3 6 9 7 14 18 20 25 26 23 17 16 22 18 16 15 14 19 20 25 26 27 27 25 26 27
11 8 9 9 15 20 24 27 31 36 44 50 56 51 34 4 9 9 6 6 8 7 11 17 18 18 15 14 16 21 17 20 20 20 21 23 21 20 23 24 25 27 28 31
12 10 7 8 14 19 21 24 30 33 40 47 53 50 32 6 12 12 11 8 8 7 8 14 17 21 19 16 15 18 18 17 18 17 15 17 20 22 25 27 29 23 29 22
13 10 4 7 11 15 18 22 28 30 37 44 49 50 34 12 11 15 14 11 10 9 7 9 17 22 18 20 24 19 16 19 18 18 18 19 21 23 25 26 22 28 18 23
12 10 6 6 10 14 17 21 23 28 33 39 45 46 38 17 9 16 17 16 13 11 10 11 11 14 20 20 24 26 24 23 24 23 23 25 24 25 27 30 28 28 26 23
11 7 4 5 9 13 16 18 21 24 31 33 40 44 41 23 5 16 19 18 18 15 14 12 14 14 15 16 17 21 24 25 25 24 23 24 22 23 25 26 29 31 31 26
13 5 1 7 5 10 15 16 18 20 26 29 36 41 42 25 15 10 21 19 19 20 18 16 16 16 15 14 13 14 16 17 19 19 22 23 22 24 24 25 26 27 28 27
17 8 5 6 8 10 12 16 15 18 24 26 32 38 40 29 12 9 15 22 21 20 19 19 17 17 17 18 18 17 17 17 18 19 21 21 22 22 24 25 27 29 28 28
17 5 2 7 9 9 10 11 13 16 20 24 27 33 36 29 15 8 4 19 23 22 20 19 18 19 19 18 17 17 18 19 19 19 20 21 22 23 25 24 27 25 25 25
18 8 8 9 11 10 10 9 12 13 18 21 23 27 36 32 22 14 5 9 19 23 23 21 19 18 17 17 17 16 15 15 16 16 17 22 22 23 23 23 23 21 22 23
17 10 11 6 8 10 10 8 10 12 17 19 19 22 28 32 25 20 12 8 10 21 23 24 22 20 18 17 17 17 16 15 15 15 16 20 18 18 21 22 21 20 21 21
21 13 15 10 10 9 10 9 10 12 14 16 16 18 24 28 28 21 17 10 6 10 21 25 23 23 22 20 20 20 19 19 19 20 21 22 22 21 21 23 23 22 21 22
24 16 16 11 11 10 9 10 9 10 13 13 15 14 19 24 26 26 18 12 8 7 11 22 28 26 26 25 25 26 25 25 24 22 22 24 25 26 28 28 26 27 26 25
21 14 16 10 11 13 11 9 9 10 10 11 12 11 16 20 24 25 22 15 9 7 7 11 25 29 27 26 27 28 30 30 28 27 26 26 27 30 30 28 28 27 28 28
22 13 15 12 11 14 12 10 9 9 11 10 11 11 14 18 20 24 24 17 13 9 9 9 14 25 27 26 27 30 34 35 36 33 31 30 27 31 31 29 31 31 28 27
24 15 11 8 7 13 14 10 9 10 9 9 8 9 12 17 20 21 25 23 16 11 11 9 11 15 22 24 25 26 26 30 35 37 37 30 28 28 29 27 30 32 31 29
24 16 11 9 9 13 12 10 10 9 9 7 7 9 10 14 16 18 21 21 17 15 12 12 12 12 12 14 16 18 17 18 21 23 23 23 25 25 27 29 29 29 30 32
26 21 15 15 14 14 13 11 11 10 8 7 6 7 10 12 15 16 18 18 20 16 14 11 12 12 11 12 13 14 16 19 22 23 24 22 24 28 30 32 33 33 31 33
22 20 16 20 18 15 14 12 11 10 8 7 6 6 10 12 15 16 15 15 17 15 15 12 13 14 13 14 15 16 18 20 23 27 29 31 32 32 33 34 37 36 36 35
17 16 20 20 21 19 15 14 12 10 8 7 8 9 11 15 17 17 15 13 14 13 13 14 13 12 12 14 17 19 22 25 27 29 31 32 34 35 35 35 35 35 37 38
13 15 24 24 20 18 17 14 12 11 10 9 9 11 13 16 17 19 17 15 14 13 10 9 11 14 13 11 16 19 23 25 27 32 35 39 41 40 37 36 37 36 36 37
18 21 26 28 24 21 19 15 13 13 12 11 12 12 14 17 18 19 19 18 17 16 16 13 14 15 17 19 21 24 25 28 31 32 32 36 36 40 42 39 36 35 34 33
21 25 30 29 27 23 20 16 16 15 16 16 17 18 20 22 24 23 25 25 23 24 24 25 25 25 24 26 29 32 35 36 37 39 41 43 45 48 46 40 42 36 31 28
27 31 35 31 30 26 21 20 20 19 20 21 24 25 27 30 31 31 33 33 35 35 34 33 33 32 32 33 36 37 41 42 43 45 48 49 50 47 48 43 40 40 32 28
31 34 36 34 31 28 24 25 24 24 24 27 28 29 30 33 36 35 39 43 44 43 40 37 37 38 39 40 41 44 47 50 53 56 57 58 55 50 49 47 40 37 37 30
35 36 37 35 35 30 25 26 26 27 29 32 33 35 37 39 40 41 45 47 46 44 42 41 40 42 44 46 50 54 58 60 62 65 66 62 57 51 49 48 44 34 34 32
36 38 38 39 36 28 27 26 26 26 29 32 33 37 39 43 44 43 43 44 45 44 44 43 43 46 50 54 58 63 65 67 67 65 61 53 48 44 43 41 39 35 34 31

GFSNW_500_spd_063.txt.gz
Wind_Speed
24 20 17 14 11 9 11 15 20 23 29 38 45 52 51 35 5 4 2 3 5 7 7 16 33 30 35 27 16 14 11 6 13 15 17 19 23 24 24 28 27 28 27 28
26 23 17 14 11 9 9 13 17 20 25 33 40 47 50 35 4 7 5 5 5 5 10 13 25 26 25 18 12 10 12 15 15 16 17 18 21 22 23 24 24 25 25 24
31 23 18 13 10 9 8 9 13 17 23 29 37 44 46 37 13 10 8 8 6 7 9 15 17 16 13 15 13 15 15 16 17 16 15 15 16 18 20 24 27 23 25 17
29 25 19 14 10 9 7 8 11 14 20 27 33 39 44 40 19 11 13 10 10 9 9 16 18 19 17 15 11 13 18 16 16 15 13 14 18 22 23 25 20 27 16 21
29 26 21 15 11 9 7 7 9 11 16 22 29 35 40 39 26 5 17 15 12 11 12 14 19 20 23 22 19 18 15 16 15 15 15 15 15 17 20 22 21 27 24 27
25 27 24 18 16 11 5 4 6 8 14 19 26 31 36 39 28 10 12 18 18 15 13 15 15 22 24 21 20 25 23 20 19 20 20 21 21 21 23 26 28 31 33 34
25 30 23 19 14 10 4 6 5 6 11 15 22 28 32 37 32 19 5 16 18 20 17 15 15 16 18 19 19 22 24 25 26 27 28 28 26 27 30 32 33 35 35 34
22 31 25 18 13 9 7 7 4 4 9 13 16 24 28 33 34 21 11 7 18 18 19 20 18 17 18 19 19 19 19 20 21 24 25 27 27 27 28 31 32 30 31 32
27 29 22 18 12 7 7 7 5 2 6 11 13 19 24 29 32 26 15 5 13 20 19 19 20 22 22 21 21 21 22 21 22 22 22 23 24 24 26 28 32 29 30 30
27 25 21 15 13 9 5 6 7 3 3 6 10 12 21 24 29 29 20 5 5 15 23 23 22 21 22 23 24 23 23 24 25 25 26 28 26 26 26 29 31 28 27 27
30 26 19 12 11 9 4 6 7 6 4 6 9 10 15 19 21 26 24 14 6 9 17 23 23 24 23 21 22 22 22 22 23 23 23 24 20 22 24 27 29 28 27 26
32 24 23 13 12 7 8 8 9 9 6 7 7 9 11 15 16 19 24 19 10 4 6 13 24 25 26 24 23 23 23 22 22 23 21 21 23 24 26 26 26 27 27 27
30 25 23 15 11 9 8 9 11 11 9 7 6 8 9 12 15 14 19 20 16 10 6 7 14 25 27 25 24 24 23 23 23 24 24 26 25 25 28 28 29 30 30 30
32 27 20 16 14 9 6 9 11 12 9 8 8 9 9 10 12 12 13 18 16 15 10 8 10 12 19 25 25 25 26 28 27 28 30 30 30 32 31 31 31 30 31 32
31 25 22 19 17 10 7 8 13 13 10 11 10 9 9 10 12 12 10 13 11 14 11 9 9 11 12 16 22 23 28 28 28 30 33 35 37 37 37 35 35 35 33 33
28 26 20 18 17 14 10 10 14 13 11 12 12 10 9 10 10 9 7 9 8 12 13 12 9 8 9 11 16 23 27 26 27 27 28 26 28 31 36 35 35 35 36 34
27 25 22 16 15 15 12 11 12 14 14 14 12 10 9 10 10 9 5 7 7 11 11 12 11 10 11 10 12 14 14 15 16 18 20 23 24 24 29 35 38 34 33 34
22 21 20 19 18 16 15 15 16 15 15 14 12 9 7 9 8 7 6 5 6 9 8 10 13 12 11 12 14 16 17 19 20 22 24 24 27 30 30 31 31 33 38 39
22 18 23 18 17 20 17 16 17 16 17 13 11 9 8 8 8 8 9 8 8 6 9 10 12 15 15 13 12 15 17 21 25 27 28 32 32 31 34 35 35 36 39 41
23 26 23 21 20 20 19 18 18 19 17 14 12 10 9 9 11 11 12 13 13 13 11 15 16 17 17 19 18 18 19 21 21 26 29 29 35 37 35 33 37 40 43 44
25 19 21 22 21 22 22 21 20 20 18 15 13 11 12 13 13 15 18 19 19 20 20 21 22 23 24 24 24 27 30 32 32 32 32 33 37 41 43 42 41 42 47 45
24 25 23 24 24 23 24 22 22 21 19 16 14 14 16 16 17 20 22 23 26 26 26 29 31 31 32 31 33 36 39 40 42 43 42 44 45 47 48 51 54 56 53 52
25 23 23 24 26 24 24 23 22 21 19 17 17 19 20 21 22 25 28 30 32 33 34 37 39 37 37 38 41 43 43 43 45 49 50 52 55 57 59 60 61 60 58 54
26 21 20 23 23 22 23 24 25 24 22 20 21 21 24 25 26 30 34 37 40 40 41 41 40 40 41 43 44 46 46 47 50 53 56 59 63 65 66 69 69 67 63 59
27 20 23 21 22 24 26 28 29 26 25 24 24 25 26 28 30 33 37 41 43 43 42 41 42 42 43 42 44 45 48 51 56 61 64 68 72 75 75 75 72 68 61 57
22 22 22 24 26 27 31 33 33 28 26 24 24 26 27 28 31 34 38 39 40 41 43 44 46 46 46 47 50 53 56 61 65 68 73 76 76 72 69 63 56 47 40 40
26 28 26 28 29 30 34 35 32 27 23 21 22 24 26 30 33 35 36 39 42 44 46 48 49 51 52 55 58 61 65 70 71 72 69 63 60 57 52 44 33 28 28 27

GFSNW_500_spd_069.txt.gz
Wind_Speed
58 58 56 46 25 22 25 20 14 10 4 8 16 22 29 34 20 6 8 10 12 15 19 25 23 17 17 14 18 16 17 16 12 8 7 11 14 13 15 17 22 26 25 27
57 51 46 39 26 26 23 20 13 10 2 5 13 18 24 29 26 10 6 8 9 12 23 19 19 17 17 18 16 13 11 10 8 10 10 10 12 16 16 14 17 21 22 20
52 49 46 31 27 21 20 19 13 9 4 2 10 16 21 26 28 20 6 5 7 6 28 27 23 17 13 15 14 7 8 7 6 6 7 7 8 10 16 20 19 19 22 24
44 40 44 25 20 22 21 20 14 10 6 1 6 12 18 24 27 23 8 5 7 6 11 30 24 23 14 17 5 5 7 9 9 9 7 8 8 10 13 16 17 20 20 22
41 45 30 28 23 22 26 21 15 13 9 4 4 10 15 20 24 24 15 4 6 7 10 23 27 21 16 20 9 6 7 8 10 9 9 12 13 11 12 12 16 16 19 18
41 32 37 28 23 17 28 20 16 15 12 7 2 8 12 18 22 26 22 6 8 8 10 15 19 20 16 18 18 14 14 13 11 11 10 9 9 10 10 12 15 15 16 18
39 32 36 29 24 21 26 22 17 18 14 9 4 5 9 14 18 24 24 14 4 11 12 14 17 18 18 18 19 20 19 17 16 14 14 13 13 15 15 16 16 16 19 19
43 36 29 26 25 22 26 24 18 19 16 10 7 4 7 11 14 19 24 25 15 1 12 15 14 15 15 16 17 21 20 19 19 21 23 22 21 21 21 22 20 21 21 21
41 36 28 26 17 31 28 21 20 20 17 12 9 6 4 7 10 13 17 22 24 19 7 7 17 19 18 17 17 17 20 23 22 22 23 25 25 25 23 23 24 23 25 26
45 33 30 25 20 32 30 22 21 21 17 13 10 7 3 5 7 8 11 15 19 20 17 9 4 15 19 19 20 22 22 22 22 24 24 27 27 28 28 26 28 29 29 30
40 32 33 23 23 33 32 23 23 22 20 15 10 7 4 1 4 6 8 11 13 15 17 16 11 4 8 16 21 22 21 21 22 24 26 29 30 29 29 31 32 33 34 33
35 28 33 24 28 34 29 28 24 20 17 15 12 8 4 2 2 3 4 6 8 10 12 16 17 17 14 10 11 14 20 23 23 25 26 29 26 23 25 27 28 29 29 30
30 33 29 24 27 32 27 27 22 20 18 17 12 10 6 5 3 4 3 4 5 9 9 11 13 16 16 15 12 11 13 19 23 27 27 31 28 26 28 30 31 33 33 33
35 36 28 25 27 31 28 28 26 17 17 17 14 11 6 3 3 4 5 4 5 5 7 9 10 11 13 15 14 14 15 15 16 20 25 28 30 30 31 33 36 36 40 41
31 34 24 26 31 31 26 23 20 19 20 17 13 10 6 3 2 5 6 6 5 5 6 7 8 9 12 13 13 15 16 17 17 17 22 25 27 29 31 33 36 38 40 39
30 28 24 13 30 30 26 22 18 18 19 13 11 8 5 4 3 5 6 6 5 7 7 7 9 10 10 12 13 14 16 17 19 19 21 23 24 24 25 26 28 29 31 33
27 25 16 19 36 31 27 24 21 19 17 13 11 7 5 4 5 6 6 6 7 8 9 8 10 10 11 12 14 17 18 20 21 22 23 24 25 25 26 27 29 30 30 31
32 25 18 17 39 33 28 23 21 18 15 12 9 6 4 4 5 6 6 6 7 8 9 10 11 12 14 15 16 18 20 23 27 29 31 32 35 37 37 37 37 37 37 37
28 25 18 20 37 33 29 26 22 19 15 11 8 6 5 5 7 7 7 8 8 10 11 13 16 17 21 24 26 28 30 30 31 32 32 35 39 43 46 47 48 50 50 49
32 25 22 25 28 33 30 26 22 18 15 12 9 7 7 7 8 8 9 10 12 14 17 20 21 24 26 30 31 31 32 34 35 36 39 40 44 47 51 55 57 59 61 62
38 28 22 25 31 30 26 25 21 18 14 11 10 9 9 9 9 11 13 13 16 18 22 25 25 26 30 32 34 36 37 39 40 41 42 43 44 47 50 52 56 59 61 63
36 27 30 32 29 28 26 24 23 19 15 13 12 11 11 12 13 14 16 16 19 21 26 29 30 31 33 35 37 40 42 43 44 45 44 45 47 50 52 55 57 60 62 66
31 28 27 26 30 30 26 21 19 14 13 14 14 13 14 15 16 18 20 21 22 24 27 31 32 34 36 40 42 45 47 48 49 50 50 52 54 59 65 68 68 67 67 68
32 30 26 28 26 22 20 24 22 20 18 17 17 16 17 18 19 22 24 26 26 27 30 33 35 36 40 44 48 50 52 54 54 53 56 60 66 64 60 59 59 57 56 54
34 31 27 26 23 24 20 21 19 17 19 20 19 19 19 21 22 24 26 27 28 31 35 36 37 40 44 49 53 55 57 59 58 60 64 67 62 55 53 55 53 49 47 45
33 32 28 24 25 23 19 18 17 17 20 20 19 20 21 22 24 26 27 27 31 34 37 39 40 44 48 53 56 59 61 62 61 66 69 64 53 50 51 54 51 44 42 35
35 31 31 31 29 24 20 16 14 14 16 17 17 19 21 24 24 25 25 28 32 36 39 41 44 48 52 55 58 62 65 64 65 69 69 56 49 49 52 53 47 42 37 31

GFSNW_500_spd_072.txt.gz
Wind_Speed
51 62 61 52 48 43 35 37 22 18 12 7 3 11 18 21 11 8 9 13 13 30 17 16 17 14 9 10 13 17 18 18 14 7 8 9 13 17 17 22 25 25 22 19
64 66 58 50 46 40 36 31 17 19 12 8 2 8 13 18 12 10 13 12 17 26 20 22 20 7 9 15 15 15 10 7 3 3 3 8 11 13 14 16 17 23 23 19
69 60 54 50 40 39 36 27 24 16 14 9 6 6 11 15 15 11 14 14 18 24 23 20 14 13 13 15 13 8 4 2 1 3 6 7 11 13 15 16 15 14 18 21
56 57 48 42 41 41 32 21 22 18 15 11 9 7 8 14 16 13 12 14 14 25 22 21 19 14 11 9 8 4 3 3 3 2 1 3 5 8 8 10 16 20 20 24
61 47 40 36 44 30 29 24 25 21 17 13 10 9 10 14 17 18 13 11 12 10 27 26 22 17 11 14 6 3 2 2 4 7 6 8 11 11 10 13 18 20 22 25
52 55 42 46 37 29 22 16 25 22 19 16 12 11 12 15 18 20 18 10 10 10 13 28 26 21 15 12 13 12 10 10 8 7 11 9 9 10 11 12 15 15 20 23
50 44 50 41 26 24 24 26 27 24 21 18 14 12 12 15 17 19 19 13 11 9 11 16 23 26 22 17 17 15 20 19 16 14 13 13 11 13 15 15 15 15 18 21
36 43 28 36 29 19 18 34 27 24 22 19 16 12 12 12 15 18 21 20 13 9 13 16 17 21 24 21 19 21 22 23 23 22 21 22 20 19 19 20 22 23 24 25
30 38 28 36 26 21 16 32 27 24 23 21 18 13 10 10 9 11 17 20 20 17 11 14 16 17 18 17 17 18 18 19 19 23 24 26 25 24 24 23 24 25 27 29
37 32 28 28 26 23 17 33 28 25 23 21 19 15 11 9 8 10 12 14 16 18 17 13 6 8 12 14 17 19 21 22 22 25 26 25 25 26 27 26 26 29 29 30
25 25 30 25 24 16 23 34 28 26 24 21 18 15 11 8 7 7 8 9 10 11 14 13 13 10 5 3 7 12 17 20 22 25 27 25 28 29 29 32 33 35 35 34
28 26 25 25 16 17 33 29 26 24 23 20 17 14 12 8 6 4 4 4 5 6 7 10 9 8 6 6 3 4 6 8 11 14 20 22 26 29 29 29 30 32 32 34
26 27 25 27 16 25 31 30 26 26 24 21 18 14 11 8 4 4 3 1 1 3 2 3 4 6 6 8 6 6 8 10 12 13 12 17 22 24 29 31 31 32 33 35
21 20 22 28 21 24 30 33 26 25 23 21 18 16 12 9 5 3 2 1 2 4 4 4 4 5 6 7 9 9 10 11 14 15 17 18 20 22 24 27 30 33 35 37
25 25 23 22 25 28 31 32 29 25 22 21 19 17 13 10 7 4 2 2 4 4 6 7 7 7 8 8 10 11 13 15 17 18 20 22 23 26 26 27 28 29 32 35
29 28 28 26 23 25 31 30 30 24 21 19 18 16 13 10 8 5 3 3 5 5 7 8 8 9 10 11 12 13 15 17 20 22 25 26 27 28 29 29 29 31 33 36
26 26 27 25 24 32 32 29 25 23 21 20 18 16 13 10 8 6 4 5 6 6 8 9 10 12 12 14 15 16 17 18 21 24 28 31 33 35 37 38 40 42 42 44
27 31 28 19 24 32 32 29 26 25 23 20 16 15 12 9 8 7 6 4 7 8 9 11 12 13 13 16 19 21 22 23 24 26 29 31 33 35 38 41 44 49 51 54
23 30 27 20 25 33 32 30 28 25 23 21 18 15 13 10 8 6 5 5 8 9 11 12 14 16 18 19 22 25 26 28 30 32 34 35 37 39 41 44 47 49 52 55
28 28 26 19 30 37 35 33 29 26 25 22 18 15 11 9 8 6 6 7 8 11 14 15 18 20 23 25 27 28 30 33 36 39 39 39 39 41 42 44 46 48 50 54
31 25 21 19 35 39 34 30 29 28 25 21 17 13 11 9 8 8 8 10 11 13 17 20 20 23 26 29 32 33 35 38 41 43 43 42 42 41 42 47 51 54 59 65
30 25 18 17 25 40 36 37 33 27 24 20 16 14 12 10 10 11 12 13 15 17 19 22 23 27 29 32 34 37 40 44 46 46 46 47 47 48 51 54 56 57 58 57
28 28 23 19 22 30 33 27 27 22 18 15 15 14 14 13 13 14 15 16 18 19 21 23 26 30 33 36 38 41 45 49 50 52 53 53 54 55 58 60 59 53 48 47
31 30 28 26 23 28 28 24 25 23 22 19 16 16 16 15 16 18 20 21 22 23 23 27 30 33 37 40 42 46 50 53 55 57 58 57 59 60 64 61 54 48 46 48
31 31 29 26 28 29 29 26 25 25 23 20 19 19 17 17 19 20 23 25 27 26 27 29 33 37 40 43 46 50 53 56 60 64 61 61 63 66 61 53 48 46 47 50
34 32 32 27 27 29 25 23 24 24 23 20 19 19 18 19 21 24 26 26 25 26 28 32 35 39 42 45 50 55 57 60 65 65 65 65 68 66 56 46 45 45 49 50
37 35 32 30 29 30 27 23 22 22 21 18 16 17 18 24 27 26 26 26 27 28 31 33 36 40 43 49 55 58 61 65 66 68 68 70 70 60 48 41 42 47 49 48

GFSNW_500_spd_075.txt.gz
Wind_Speed
16 23 30 53 52 50 49 44 31 21 22 16 13 11 8 4 3 8 7 15 29 20 21 19 19 11 13 14 13 15 15 12 9 7 6 10 15 17 19 19 19 18 18 18
18 29 51 56 44 45 43 30 29 22 15 14 13 4 5 3 6 12 12 16 28 24 23 15 12 11 13 15 17 15 12 8 8 6 5 6 8 13 16 20 23 23 22 20
23 50 63 62 47 53 44 28 21 22 19 16 10 4 3 7 10 14 16 18 30 26 22 15 12 9 13 15 12 9 8 7 5 4 2 3 6 8 11 13 17 19 22 23
38 62 62 59 47 45 41 28 24 19 21 17 10 6 4 9 14 16 17 21 31 26 22 16 13 13 16 11 6 7 7 6 5 4 4 4 3 4 5 10 12 15 15 18
57 62 58 49 47 38 31 26 20 21 21 16 11 9 9 11 15 18 19 24 32 30 25 18 15 12 11 11 9 9 7 5 5 2 2 2 5 5 6 9 12 15 17 20
60 57 48 46 44 39 30 18 17 19 20 17 15 14 15 15 16 17 21 19 26 27 26 22 19 15 12 14 10 6 4 1 4 5 2 2 6 5 8 10 13 15 18 20
55 49 40 35 30 32 21 21 17 24 22 21 20 18 17 18 17 17 16 18 19 18 26 26 26 22 16 13 11 11 10 13 13 14 12 14 12 11 12 12 13 14 17 21
41 38 38 40 28 23 23 22 19 25 24 22 22 21 19 20 20 20 19 17 14 14 16 22 28 27 26 23 23 22 19 20 19 20 21 21 17 18 19 19 18 19 21 23
30 28 40 25 29 21 13 19 22 25 24 24 23 23 20 17 18 19 19 18 17 14 12 11 12 15 18 20 24 22 20 21 21 20 18 18 18 21 22 22 22 24 26 30
33 28 29 26 18 17 15 24 29 28 25 24 23 21 20 17 15 16 16 16 16 16 14 10 10 13 16 15 18 18 20 23 22 22 22 20 22 22 24 25 26 28 29 31
31 26 27 26 19 14 16 28 30 27 25 24 22 20 16 16 15 13 12 11 11 10 11 11 9 9 8 5 7 9 11 13 14 14 17 19 19 22 24 27 29 30 32 33
30 25 25 26 21 17 14 24 28 27 24 23 21 18 16 12 11 10 8 7 6 6 6 6 5 4 4 2 0 1 3 4 5 7 10 13 16 17 20 22 25 27 29 32
25 21 23 21 21 16 21 29 29 26 24 21 21 19 16 12 10 9 7 5 3 2 1 1 1 1 2 3 4 5 6 6 7 9 13 15 17 19 21 23 24 26 28 30
20 19 19 20 15 22 26 34 31 27 24 21 20 17 15 14 11 9 7 4 3 2 2 3 4 6 7 7 8 9 10 11 12 14 16 16 19 21 23 27 28 29 31 33
17 14 15 17 12 24 30 32 30 26 24 21 20 18 15 13 11 9 7 4 4 3 4 5 5 7 8 10 11 11 12 13 15 17 19 22 24 27 29 31 33 35 37 39
17 14 12 15 14 22 28 30 29 25 22 20 20 18 16 14 12 10 8 7 6 5 5 7 8 8 10 11 13 14 14 17 19 20 22 25 27 30 33 36 38 41 42 45
22 19 16 14 15 23 24 32 29 26 24 22 21 19 17 14 13 11 9 9 7 5 6 8 9 11 11 13 15 16 18 19 21 25 27 30 33 35 36 37 38 40 42 46
25 23 20 21 17 21 22 29 32 27 24 22 22 20 16 14 13 12 11 9 7 7 7 9 11 12 14 18 18 20 22 24 26 29 32 35 38 41 41 41 42 43 44 47
24 25 25 22 21 25 25 26 29 29 27 22 20 18 17 15 14 12 10 8 8 8 8 11 13 15 16 18 21 25 27 29 31 34 37 41 44 45 45 45 45 44 45 48
26 27 26 24 28 28 28 29 28 25 23 25 21 18 17 17 16 13 10 9 8 8 10 12 15 19 20 22 24 27 30 32 35 38 43 46 48 48 48 48 47 48 49 52
30 27 28 28 24 29 32 31 28 26 27 26 25 23 21 18 15 12 10 10 9 11 14 14 16 20 23 26 29 31 35 37 40 43 48 50 52 51 49 49 51 53 56 59
38 29 28 31 29 31 35 35 31 29 27 27 27 23 19 16 15 13 13 12 12 13 16 19 20 22 25 29 31 34 37 40 43 48 51 53 55 57 56 55 56 60 66 64
40 36 31 29 30 37 38 35 32 30 24 27 23 20 18 17 16 15 15 15 16 19 20 23 25 26 28 30 33 36 39 42 48 53 55 57 60 61 63 62 68 70 63 56
41 39 34 31 29 33 38 33 31 27 28 26 24 22 19 18 19 17 17 19 21 21 24 25 26 28 30 33 35 39 42 47 53 56 58 62 66 67 66 73 71 63 51 41
44 43 39 29 27 23 30 37 34 32 31 28 27 23 21 21 20 17 19 23 23 25 26 27 28 31 32 35 38 41 46 53 57 61 63 69 72 71 73 71 61 48 40 38
47 47 39 30 27 26 30 34 34 34 33 31 27 23 22 21 21 20 23 23 24 27 28 28 30 32 34 37 40 45 51 57 61 64 69 74 73 75 72 58 45 40 41 42
50 44 35 31 29 31 33 33 34 31 28 27 25 24 24 25 24 24 24 24 26 27 27 28 31 34 36 39 44 49 56 60 63 69 75 74 77 73 61 45 41 41 40 42

GFSNW_500_spd_078.txt.gz
Wind_Speed
5 10 24 29 33 50 56 46 35 28 33 18 15 18 12 8 9 8 25 24 18 19 19 16 12 12 14 15 18 19 19 17 13 11 9 7 6 7 10 10 9 6 6 5
11 11 29 37 49 52 48 44 38 37 30 14 9 10 7 4 11 11 32 28 25 24 22 16 14 14 19 21 19 17 16 16 13 13 9 8 6 4 8 10 11 14 13 12
13 23 28 50 52 36 42 40 39 35 21 13 12 8 6 10 12 18 32 31 29 24 19 15 13 14 16 17 16 16 15 15 14 13 11 8 6 4 1 4 6 10 15 18
20 35 45 53 34 45 39 38 27 19 13 12 11 7 11 14 15 20 33 35 31 24 17 14 15 16 15 13 13 14 13 13 13 12 12 12 10 7 3 1 4 5 6 13
45 50 49 38 45 43 34 30 23 14 9 13 10 12 15 18 17 22 30 37 31 24 20 15 14 16 14 12 10 9 11 14 12 8 8 8 8 6 2 1 3 4 7 10
48 46 42 44 44 34 23 22 19 15 12 13 16 19 19 19 20 25 30 34 36 27 23 17 16 14 11 10 9 7 6 5 5 5 4 4 7 4 5 5 6 8 9 13
37 34 36 33 32 26 16 13 16 19 14 15 19 21 21 20 19 22 26 34 34 27 24 20 16 13 8 7 7 4 2 4 6 9 8 10 11 11 11 11 12 13 13 15
27 32 33 26 22 18 11 10 14 16 12 16 22 21 19 19 18 17 22 25 30 22 24 19 19 19 17 15 13 13 13 17 16 16 17 18 19 17 14 15 17 19 21 22
18 23 24 16 14 9 9 9 18 16 13 20 24 23 22 23 21 19 16 15 17 16 17 20 19 18 16 19 22 22 23 22 21 20 21 19 18 19 19 20 21 25 27 28
19 19 20 16 9 3 9 14 19 18 16 21 24 23 21 21 21 20 19 16 14 13 12 11 9 8 9 9 11 11 14 14 17 18 19 19 20 19 21 21 21 26 29 31
11 14 11 6 5 2 13 21 21 18 19 20 22 20 18 18 17 16 15 14 14 12 11 8 6 5 4 2 2 3 5 6 8 10 12 14 14 16 17 20 22 24 27 30
10 7 10 8 3 3 17 19 19 17 20 20 22 20 17 15 13 12 9 9 8 8 7 6 4 2 2 2 4 4 7 6 8 10 12 14 15 17 20 22 24 25 28 29
13 9 11 13 11 5 12 21 20 18 20 20 19 20 18 15 12 10 7 5 4 3 2 1 2 3 4 5 6 7 8 9 10 12 15 16 18 21 22 24 27 31 34 37
15 12 12 12 10 10 13 24 23 19 19 19 19 17 16 15 12 9 7 5 4 4 3 3 4 5 7 8 10 10 11 12 14 15 17 19 21 24 26 28 30 33 36 39
14 13 13 11 11 12 17 27 23 21 20 19 18 16 15 14 12 10 9 8 6 5 5 5 6 7 8 10 11 13 13 15 16 19 21 22 23 25 28 31 33 35 38 40
16 13 11 10 9 11 20 25 24 24 23 19 19 17 15 14 12 10 10 8 8 6 6 7 8 8 10 12 13 15 17 18 19 21 23 25 27 29 32 37 39 41 41 42
22 20 15 12 11 11 17 26 26 25 25 22 20 18 16 15 13 12 11 11 10 6 7 9 9 10 13 14 15 17 18 19 22 24 26 29 31 34 38 43 46 47 46 47
26 22 21 18 13 12 21 26 26 27 27 23 21 20 17 16 14 14 13 13 11 10 9 10 11 13 15 16 18 19 21 23 26 28 31 33 36 40 44 48 51 50 51 52
30 27 25 22 20 16 19 24 28 29 29 25 22 21 20 16 15 15 14 13 12 12 11 11 13 15 16 18 21 23 25 27 30 33 35 38 40 45 49 52 55 54 55 54
34 31 29 28 26 23 21 23 26 27 35 28 25 22 21 18 17 17 16 15 13 13 12 13 15 19 19 20 23 26 28 31 33 37 39 41 46 50 53 55 57 58 59 62
42 35 31 29 29 27 25 26 25 23 32 27 26 25 22 20 19 20 18 16 14 13 15 15 16 20 23 25 27 30 32 35 37 40 42 46 51 55 57 60 62 64 66 67
44 40 35 33 31 29 27 28 30 26 29 28 27 25 24 22 19 20 20 17 15 14 17 20 20 23 25 26 29 32 34 37 40 43 46 51 56 59 61 66 69 68 69 68
49 45 41 36 35 36 29 28 30 28 28 26 25 25 24 22 23 21 20 17 15 18 18 20 23 25 26 28 30 34 36 39 42 46 51 57 60 63 69 72 72 69 67 56
49 50 45 40 38 40 33 27 31 33 31 29 27 24 24 24 25 24 20 19 19 20 20 23 25 26 27 29 33 35 38 41 45 50 56 60 63 69 74 74 71 69 57 47
50 50 48 44 40 35 32 31 33 35 35 30 28 28 28 30 29 25 21 20 22 22 24 25 27 28 29 32 35 39 40 44 48 55 59 63 68 74 76 72 69 61 50 45
54 52 50 46 39 34 31 31 35 39 37 34 33 32 32 32 30 25 24 23 22 25 26 28 29 30 32 35 38 40 42 46 53 58 62 66 72 79 77 71 63 54 50 50
58 56 52 45 40 38 34 31 37 42 38 36 33 33 34 31 30 27 25 25 24 25 27 28 29 31 34 37 39 41 44 50 56 60 65 70 77 82 76 69 58 54 56 58

GFSNW_500_spd_084.txt.gz
Wind_Speed
34 34 35 36 48 50 46 41 40 39 31 25 24 18 13 26 28 31 27 25 21 15 18 21 20 21 22 19 17 17 16 14 11 13 18 18 22 24 24 22 21 16 16 21
31 31 37 41 43 41 37 34 31 32 26 21 16 21 27 28 34 29 29 25 21 21 20 20 20 22 21 20 18 17 15 13 14 14 14 18 18 19 18 17 14 11 10 10
45 43 42 40 36 36 31 22 21 19 19 18 16 22 28 32 34 32 31 27 24 23 23 23 21 20 20 21 20 20 20 19 18 18 19 21 23 15 10 10 7 5 10 10
46 42 37 32 29 26 27 22 18 17 15 17 22 27 28 37 33 35 30 26 25 25 24 22 21 21 18 20 21 21 22 23 22 21 23 22 22 16 13 11 9 7 9 9
42 40 35 33 28 23 21 14 16 16 14 17 25 26 36 35 34 34 29 25 22 20 20 19 19 18 18 19 21 22 21 19 19 20 23 20 17 14 12 6 3 4 4 8
39 41 42 38 36 32 24 22 22 21 19 18 22 24 34 31 33 32 28 22 20 18 16 15 16 16 15 16 15 15 15 14 13 11 10 9 5 5 4 5 1 3 5 7
36 39 39 37 33 30 26 25 24 21 20 18 21 22 27 27 29 29 28 23 18 14 12 13 12 11 12 11 10 8 7 5 5 4 1 4 3 4 7 8 8 7 11 11
32 36 36 34 29 26 24 24 22 19 20 21 22 20 21 24 25 25 24 18 14 12 10 11 9 6 4 1 2 4 6 7 5 6 7 6 7 8 8 7 7 10 12 14
26 32 30 30 22 20 20 21 20 17 20 22 22 21 20 20 22 20 17 15 13 11 10 7 6 4 2 1 4 4 4 2 3 4 3 4 6 8 9 10 9 11 13 16
20 23 23 21 20 16 15 16 16 17 18 22 23 23 21 21 21 19 17 15 12 10 8 6 5 4 5 2 4 3 4 4 3 5 6 5 6 8 10 11 13 15 15 17
18 19 18 18 14 8 8 11 13 15 18 19 19 20 20 20 18 17 15 15 12 12 10 7 7 6 5 4 4 5 5 5 7 8 9 10 11 13 13 15 18 19 21 22
13 12 16 17 12 4 1 5 9 10 12 14 15 15 14 13 12 12 11 11 10 9 7 5 3 2 1 2 3 5 6 9 10 11 12 14 15 17 19 20 22 24 26 27
18 12 11 15 17 12 9 6 7 7 6 7 9 9 9 7 6 7 7 6 5 4 2 1 1 2 4 5 6 8 9 11 12 13 14 16 17 19 20 22 24 26 28 29
25 20 12 11 18 19 17 14 11 10 10 9 8 9 7 3 1 1 1 1 1 1 2 3 4 5 7 7 8 9 10 11 12 13 14 17 19 21 22 24 26 28 31 33
30 25 21 13 15 18 22 23 18 15 15 12 12 10 9 8 6 6 6 6 6 6 6 7 7 7 8 8 9 10 11 12 13 15 17 19 22 24 26 27 30 32 34 36
37 30 24 24 16 17 19 22 28 23 20 19 17 15 14 13 12 11 10 10 9 11 10 10 10 10 10 10 10 11 13 14 15 17 19 22 25 27 29 30 33 34 37 41
26 38 30 27 26 20 21 21 24 29 27 25 22 22 21 19 17 16 15 14 13 12 13 13 13 13 12 13 13 15 16 18 19 22 24 26 28 30 32 34 36 38 42 48
24 29 41 35 32 27 24 23 23 23 28 30 28 26 24 23 22 20 19 19 17 16 14 15 15 15 14 15 14 17 19 21 23 25 27 29 31 33 36 37 40 44 49 53
29 29 37 41 38 33 28 27 25 24 25 29 32 31 29 25 25 24 23 23 21 18 17 17 17 18 16 17 18 20 22 24 25 27 29 31 33 36 38 41 45 50 54 58
37 29 30 39 39 37 32 29 27 26 25 26 31 31 31 29 28 28 28 26 24 21 19 18 19 22 20 20 20 22 24 25 27 29 31 34 36 38 41 45 50 55 58 62
42 33 26 39 41 39 36 32 30 27 24 24 28 31 30 29 29 29 29 27 26 23 21 19 20 24 24 24 23 25 27 29 30 31 33 36 39 41 44 50 55 60 63 68
44 34 27 29 44 43 42 36 31 27 24 21 24 28 31 32 31 28 29 30 29 26 23 22 21 25 26 25 26 28 30 31 31 32 35 39 41 44 48 54 59 63 68 73
47 38 31 27 42 48 45 41 31 26 26 29 27 27 30 34 34 36 32 33 31 28 24 22 24 25 27 27 28 30 32 31 32 34 38 41 43 47 52 57 62 68 73 79
48 45 34 32 32 48 47 45 37 31 28 27 27 27 31 32 33 36 34 34 32 30 25 23 26 27 28 29 30 33 32 31 32 35 39 42 46 51 56 61 67 73 78 82
48 49 39 31 29 32 46 48 45 37 32 30 29 30 31 34 34 36 39 38 35 28 24 26 27 28 28 30 30 33 32 32 33 37 41 45 49 54 59 65 71 77 82 83
49 47 33 26 29 30 41 45 44 42 37 35 32 31 33 33 35 35 33 31 28 25 27 30 29 29 29 30 31 33 31 32 34 39 43 47 52 57 62 69 74 81 85 83
48 40 31 26 29 31 31 43 40 42 40 37 36 33 33 34 35 35 32 28 27 27 29 31 30 30 31 31 32 32 32 33 36 40 44 49 54 59 65 72 78 84 83 76

GFSNW_500_spd_087.txt.gz
Wind_Speed
58 55 52 47 44 40 38 33 33 38 34 26 23 22 28 33 34 31 29 25 24 23 20 20 17 17 16 15 12 12 13 15 18 23 23 26 26 27 24 28 25 21 15 17
52 48 47 42 37 35 33 26 19 23 25 20 17 24 33 37 32 29 27 22 22 21 20 20 19 17 14 13 11 9 13 14 15 18 16 16 20 20 18 18 19 17 18 16
57 54 45 38 36 33 30 26 26 12 11 13 18 30 37 32 30 28 24 22 21 21 20 18 18 18 18 18 18 16 13 12 12 15 15 15 13 12 12 11 12 11 9 10
59 56 52 48 41 39 37 32 25 20 18 25 29 33 32 33 30 25 24 22 21 20 19 18 18 19 21 22 23 22 20 17 13 12 11 9 9 7 6 6 5 4 4 4
58 59 55 51 47 47 45 37 31 26 23 27 31 33 31 31 26 25 25 23 22 19 18 18 18 19 21 23 22 22 21 19 18 17 15 16 15 14 10 6 5 5 3 3
53 52 53 50 46 46 44 40 35 31 26 26 32 28 32 27 24 24 21 18 16 15 15 14 14 16 17 18 18 17 15 12 10 9 8 6 4 7 5 3 6 8 5 6
44 40 43 41 39 39 37 35 32 29 27 25 25 25 26 23 21 22 18 14 12 11 12 12 11 11 9 7 8 7 6 3 2 1 2 3 4 5 6 7 8 8 9 10
37 32 32 31 31 30 30 29 28 28 26 24 23 21 20 18 16 13 15 11 7 7 8 9 6 4 1 1 1 3 5 6 5 2 5 2 3 3 3 5 6 7 8 9
29 27 25 24 23 22 22 23 23 23 23 23 21 20 19 18 16 14 13 11 9 8 7 6 4 3 3 3 4 5 5 5 4 4 5 6 6 7 8 8 7 9 10 12
19 24 24 15 16 15 15 16 19 20 21 20 20 18 16 15 13 12 9 8 7 6 5 3 1 1 1 3 4 4 5 5 6 8 10 9 10 11 13 13 14 16 18 19
14 16 21 19 9 10 9 9 11 13 14 14 14 15 14 14 13 11 9 7 6 6 5 4 2 3 3 3 5 6 7 7 9 10 11 12 13 14 15 17 19 20 21 23
18 15 19 20 18 6 5 4 2 4 6 7 7 7 8 8 8 7 7 6 5 4 3 2 2 3 5 6 7 8 8 9 10 10 12 12 14 16 17 19 20 22 23 26
21 19 16 19 21 21 12 11 9 7 5 3 1 1 2 1 2 3 2 1 1 0 1 2 3 4 5 7 8 8 9 10 10 11 12 13 15 17 19 20 22 24 26 28
31 24 23 20 21 22 24 18 17 17 16 12 10 8 6 6 6 5 5 4 5 5 5 6 6 7 8 8 8 9 9 11 13 13 14 16 17 19 21 23 25 27 29 32
33 29 24 27 24 21 25 27 22 21 21 21 18 15 14 11 10 10 11 11 10 11 10 10 10 11 11 11 11 11 11 12 14 14 15 17 20 22 24 26 29 31 33 35
36 35 25 25 30 27 23 26 28 25 25 26 24 22 21 19 17 15 15 16 15 15 14 14 13 13 13 14 13 14 14 16 17 18 19 21 22 24 26 29 31 33 35 38
36 36 32 24 28 33 30 26 29 31 29 28 31 29 28 27 24 23 21 20 20 19 19 17 17 17 17 16 16 16 18 18 20 21 22 24 25 28 30 32 34 36 38 40
38 36 39 30 25 30 37 35 29 30 31 32 32 35 34 33 30 28 27 26 23 22 23 23 21 21 20 18 18 20 20 22 22 23 25 27 29 31 33 35 37 38 41 44
38 39 39 41 27 23 33 42 40 33 32 31 30 33 38 37 35 32 32 31 28 26 26 27 26 23 21 21 20 22 22 25 25 26 28 30 31 33 35 38 39 41 44 49
38 39 40 42 41 30 27 41 46 42 35 32 29 30 33 38 37 36 35 33 34 31 29 30 27 24 29 22 23 23 24 27 27 28 31 32 35 36 38 40 42 44 48 53
36 38 38 43 43 39 32 34 46 46 38 32 29 29 30 34 35 36 36 34 35 35 31 32 26 26 30 26 25 25 26 29 29 31 34 34 36 38 41 43 45 48 53 58
33 35 36 40 43 41 31 27 38 43 40 34 31 31 31 33 37 38 35 34 37 36 32 32 25 28 30 28 27 26 29 30 32 34 36 36 38 40 42 44 48 52 57 63
33 35 35 42 43 44 38 28 27 43 43 40 36 32 33 33 34 35 38 41 39 36 36 29 24 29 29 29 28 29 30 32 33 34 36 37 38 41 44 47 51 56 61 67
33 35 35 41 46 47 43 32 29 32 46 43 40 38 32 34 36 36 37 40 40 38 34 23 26 32 32 30 29 29 31 34 33 34 35 37 40 43 46 50 54 59 64 71
37 36 35 41 44 48 47 37 30 31 39 45 41 42 39 34 36 38 36 38 38 37 27 27 29 28 30 29 30 30 33 33 33 33 35 37 41 44 47 52 57 62 68 74
38 35 37 40 43 47 49 44 33 33 34 40 46 45 44 41 39 39 39 37 33 27 24 23 26 31 28 29 31 32 34 32 33 33 35 38 42 45 49 54 59 65 71 77
37 34 37 40 42 45 49 44 35 34 39 36 42 45 44 46 43 41 40 39 32 28 26 29 31 30 28 30 34 35 32 30 31 33 35 38 42 46 50 55 61 67 73 78